Location: Hillern
(53.0557°N, 9.8577°E)
Time: 01:30:47
(UTC+00:00)

CENTAUR R/B - Pass Details

Date: 19 May 2025
Orbit: 644 x 1537 km, 63.4° (Epoch: 23 June)

Event Time Altitude Azimuth Distance (km) Brightness Sun altitude
Rises 21:21:52 0° 305° (NW) 3,902 6.8 -12.8°
Reaches altitude 10° 21:24:26 10° 310° (NW) 3,066 6.2 -13.0°
Maximum altitude 21:31:50 53° 27° (NNE) 1,597 3.8 -13.5°
Drops below altitude 10° 21:40:36 10° 103° (ESE) 3,621 5.1 -14.0°
Sets 21:43:52 0° 108° (ESE) 4,655 5.6 -14.2°
